TimeMDT,TemperatureF,Dew PointF,Humidity,Sea Level PressureIn,VisibilityMPH,Wind Direction,Wind SpeedMPH,Gust SpeedMPH,PrecipitationIn,Events,Conditions,WindDirDegrees,DateUTC
12:53 AM,33.1,21.9,64,29.79,10.0,North,5.8,-,N/A,,Clear,10,2014-03-15 06:53:00
1:53 AM,37.9,23.0,55,29.76,10.0,WNW,9.2,-,N/A,,Clear,290,2014-03-15 07:53:00
2:53 AM,39.0,24.1,55,29.75,10.0,West,6.9,-,N/A,,Clear,280,2014-03-15 08:53:00
3:53 AM,37.9,25.0,60,29.75,10.0,WNW,10.4,-,N/A,,Clear,290,2014-03-15 09:53:00
4:53 AM,35.1,24.1,64,29.80,10.0,WNW,9.2,-,N/A,,Mostly Cloudy,300,2014-03-15 10:53:00
5:53 AM,39.9,25.0,55,29.80,10.0,WNW,11.5,-,N/A,,Overcast,290,2014-03-15 11:53:00
6:53 AM,36.0,26.1,67,29.85,10.0,NW,4.6,-,N/A,,Overcast,310,2014-03-15 12:53:00
7:53 AM,42.1,28.0,58,29.89,10.0,North,19.6,-,N/A,,Overcast,360,2014-03-15 13:53:00
8:53 AM,41.0,33.1,73,29.95,10.0,NNW,21.9,34.5,N/A,,Overcast,340,2014-03-15 14:53:00
9:53 AM,37.0,33.1,86,30.03,8.0,NW,19.6,28.8,0.00,Rain,Light Rain,320,2014-03-15 15:53:00
10:00 AM,37.0,33.1,86,30.01,9.0,NW,23.0,29.9,0.00,Rain,Light Rain,320,2014-03-15 16:00:00
10:53 AM,37.0,-9999,N/A,30.08,10.0,NW,17.3,24.2,0.01,Rain,Light Rain,310,2014-03-15 16:53:00
11:53 AM,37.0,34.0,89,30.11,10.0,WNW,19.6,31.1,0.00,,Overcast,300,2014-03-15 17:53:00
12:53 PM,37.9,33.1,83,30.15,10.0,NW,23.0,34.5,0.00,,Overcast,320,2014-03-15 18:53:00
1:53 PM,39.9,33.1,77,30.14,10.0,NW,20.7,32.2,0.00,,Overcast,320,2014-03-15 19:53:00
2:53 PM,42.1,32.0,67,30.15,10.0,NW,25.3,39.1,N/A,,Overcast,320,2014-03-15 20:53:00
3:53 PM,41.0,32.0,70,30.18,10.0,NNW,20.7,28.8,N/A,,Overcast,330,2014-03-15 21:53:00
4:53 PM,44.1,30.9,60,30.20,10.0,NNW,25.3,39.1,N/A,,Mostly Cloudy,330,2014-03-15 22:53:00
5:53 PM,43.0,28.9,58,30.22,10.0,NNW,23.0,35.7,N/A,,Overcast,340,2014-03-15 23:53:00
6:53 PM,41.0,27.0,57,30.27,10.0,NNW,25.3,32.2,N/A,,Mostly Cloudy,330,2014-03-16 00:53:00
7:53 PM,37.0,27.0,67,30.28,10.0,NW,17.3,-,N/A,,Clear,320,2014-03-16 01:53:00
8:53 PM,36.0,27.0,70,30.33,10.0,NNW,13.8,-,N/A,,Clear,340,2014-03-16 02:53:00
9:53 PM,30.9,27.0,85,30.37,10.0,WNW,6.9,-,N/A,,Partly Cloudy,300,2014-03-16 03:53:00
10:53 PM,32.0,28.9,88,30.38,10.0,Calm,Calm,-,N/A,,Mostly Cloudy,0,2014-03-16 04:53:00
11:08 PM,33.1,28.9,85,30.32,10.0,Calm,Calm,-,N/A,,Overcast,0,2014-03-16 05:08:00
11:53 PM,30.0,27.0,88,30.38,10.0,NNE,5.8,-,N/A,,Mostly Cloudy,30,2014-03-16 05:53:00